Torna al catalogo

TITAN 3C TRANSTAGE DEB

AttivoHEO
NORAD 27878·DEBRIS·🇺🇸 United States

Lanciato Dec 21, 1965 da Cape Canaveral Space Force Station

Loading…

Prossimi Passaggi (prossime 24 ore)

TLE

AggiornatoSource: Space-Track

Epoca: Sep 13, 2026, 20:05 UTC

1 27878U 65108BP  26256.83694800  .00000111  00000-0  11161-2 0  9996
2 27878  26.4018  81.9573 6708490 155.8313 355.0234  2.84493677128731

Traccia TITAN 3C TRANSTAGE DEB in tempo reale con AllMySat

Download on the App Store